Tracking 18844 objects as of 21-Nov-2017
HD Live streaming from Space Station
objects crossing your sky now

COSMOS 1041

Track COSMOS 1041 now!
10-day predictions
COSMOS 1041 is classified as:


NORAD ID: 11050
Int'l Code: 1978-091H
Perigee: 1,483.8 km
Apogee: 1,515.9 km
Inclination: 74.0 °
Period: 115.8 minutes
Semi major axis: 7870 km
RCS: 0.7044 m2 (medium)
Launch date: October 4, 1978
Source: Commonwealth of Independent States (former USSR) (CIS)
Launch site: PLESETSK MISSILE AND SPACE COMPLEX (PKMTR)
aabbcc
Your satellite tracking list
Your tracking list is empty




NASA's NSSDC Master Catalog

Two Line Element Set (TLE):
1 11050U 78091H   17325.55894793 -.00000017  00000-0 -83520-5 0  9993
2 11050  74.0372  50.9673 0020442 259.5841 206.2007 12.43282246776335
Source of the keplerian elements: AFSPC